When you browse on this site, cookies collect data to enhance your experience and personalize the content and advertising you see.
Visit our Privacy Policy to learn more. By continuing to use the site, you agree to this use of cookies and data.
  • En España
  • Lista de países
  • Para 7 días
  • Temperatura del agua
  • El tiempo en el mapa
  • Informadores
  • user-avatar
    Iniciar sesión

    Tiempo cada hora Siva

    Hoy, 14 Diciembre, Sábado

    Tiempo Temperatura Precipitaciones Viento Presión Humedad
    00:00 +13°C° 0 mm 4 mps 756 mmHg 29%
    01:00 +13°C° 0 mm 4 mps 756 mmHg 29%
    02:00 +13°C° 0 mm 4 mps 755 mmHg 29%
    03:00 +12°C° 0 mm 5 mps 755 mmHg 30%
    04:00 +12°C° 0 mm 5 mps 755 mmHg 30%
    05:00 +12°C° 0 mm 5 mps 755 mmHg 30%
    06:00 +12°C° 0 mm 5 mps 755 mmHg 30%
    07:00 +11°C° 0 mm 6 mps 756 mmHg 29%
    08:00 +11°C° 0 mm 6 mps 756 mmHg 28%
    09:00 +12°C° 0 mm 7 mps 756 mmHg 26%
    10:00 +15°C° 0 mm 7 mps 756 mmHg 24%
    11:00 +16°C° 0 mm 7 mps 756 mmHg 22%
    12:00 +17°C° 0 mm 8 mps 755 mmHg 21%
    13:00 +20°C° 0 mm 8 mps 754 mmHg 20%
    14:00 +21°C° 0 mm 9 mps 754 mmHg 19%
    15:00 +21°C° 0 mm 8 mps 754 mmHg 20%
    16:00 +20°C° 0 mm 7 mps 754 mmHg 21%
    17:00 +20°C° 0 mm 6 mps 753 mmHg 21%
    18:00 +19°C° 0 mm 6 mps 754 mmHg 23%
    19:00 +17°C° 0 mm 7 mps 754 mmHg 24%
    20:00 +17°C° 0 mm 7 mps 754 mmHg 25%
    21:00 +17°C° 0 mm 7 mps 754 mmHg 28%
    22:00 +16°C° 0 mm 8 mps 754 mmHg 32%
    23:00 +16°C° 0 mm 9 mps 754 mmHg 35%

    Mañana, 15 Diciembre, Domingo

    Tiempo Temperatura Precipitaciones Viento Presión Humedad
    00:00 +16°C° 0.3 mm 9 mps 754 mmHg 44%
    01:00 +16°C° 0.3 mm 10 mps 754 mmHg 52%
    02:00 +16°C° 0.3 mm 10 mps 754 mmHg 61%
    03:00 +15°C° 0 mm 9 mps 754 mmHg 67%
    04:00 +15°C° 0 mm 9 mps 754 mmHg 73%
    05:00 +15°C° 0 mm 8 mps 755 mmHg 79%
    06:00 +13°C° 0 mm 8 mps 755 mmHg 80%
    07:00 +14°C° 0 mm 7 mps 756 mmHg 80%
    08:00 +14°C° 0 mm 7 mps 756 mmHg 81%
    09:00 +15°C° 0 mm 8 mps 757 mmHg 71%
    10:00 +16°C° 0 mm 9 mps 757 mmHg 62%
    11:00 +18°C° 0 mm 10 mps 757 mmHg 52%
    12:00 +18°C° 0 mm 9 mps 757 mmHg 51%
    13:00 +20°C° 0 mm 8 mps 757 mmHg 49%
    14:00 +21°C° 0 mm 7 mps 757 mmHg 48%
    15:00 +21°C° 0 mm 7 mps 757 mmHg 49%
    16:00 +20°C° 0 mm 6 mps 757 mmHg 50%
    17:00 +20°C° 0 mm 5 mps 758 mmHg 51%
    18:00 +20°C° 0 mm 5 mps 758 mmHg 52%
    19:00 +19°C° 0 mm 5 mps 759 mmHg 54%
    20:00 +18°C° 0 mm 4 mps 759 mmHg 56%
    21:00 +18°C° 0 mm 4 mps 760 mmHg 60%
    22:00 +17°C° 0 mm 4 mps 760 mmHg 63%
    23:00 +17°C° 0 mm 4 mps 761 mmHg 67%

    Pasado mañana, 16 Diciembre, Lunes

    Tiempo Temperatura Precipitaciones Viento Presión Humedad
    00:00 +15°C° 0 mm 4 mps 761 mmHg 71%
    01:00 +16°C° 0 mm 3 mps 761 mmHg 75%
    02:00 +14°C° 0 mm 3 mps 761 mmHg 79%
    03:00 +14°C° 0 mm 3 mps 761 mmHg 82%
    04:00 +14°C° 0 mm 3 mps 761 mmHg 85%
    05:00 +14°C° 0 mm 3 mps 761 mmHg 88%
    06:00 +14°C° 0 mm 3 mps 761 mmHg 87%
    07:00 +13°C° 0 mm 3 mps 762 mmHg 87%
    08:00 +13°C° 0 mm 3 mps 762 mmHg 86%
    09:00 +15°C° 0 mm 4 mps 763 mmHg 78%
    10:00 +17°C° 0 mm 4 mps 763 mmHg 69%
    11:00 +17°C° 0 mm 5 mps 763 mmHg 60%
    12:00 +19°C° 0 mm 5 mps 763 mmHg 56%
    13:00 +19°C° 0 mm 5 mps 762 mmHg 51%
    14:00 +20°C° 0 mm 5 mps 762 mmHg 47%
    15:00 +20°C° 0 mm 5 mps 762 mmHg 47%
    16:00 +19°C° 0 mm 4 mps 762 mmHg 47%
    17:00 +19°C° 0 mm 4 mps 762 mmHg 47%
    18:00 +19°C° 0 mm 3 mps 762 mmHg 50%
    19:00 +18°C° 0 mm 3 mps 762 mmHg 53%
    20:00 +17°C° 0 mm 3 mps 763 mmHg 56%
    21:00 +17°C° 0 mm 3 mps 763 mmHg 58%
    22:00 +17°C° 0 mm 2 mps 763 mmHg 60%
    23:00 +16°C° 0 mm 2 mps 763 mmHg 63%

    17 Diciembre, Martes

    Tiempo Temperatura Precipitaciones Viento Presión Humedad
    00:00 +16°C° 0 mm 3 mps 763 mmHg 65%
    01:00 +14°C° 0 mm 3 mps 763 mmHg 68%
    02:00 +14°C° 0 mm 3 mps 763 mmHg 70%
    03:00 +14°C° 0 mm 3 mps 763 mmHg 72%
    04:00 +13°C° 0 mm 3 mps 763 mmHg 74%
    05:00 +14°C° 0 mm 2 mps 763 mmHg 77%
    06:00 +14°C° 0 mm 2 mps 763 mmHg 77%
    07:00 +14°C° 0 mm 2 mps 764 mmHg 78%
    08:00 +14°C° 0 mm 2 mps 764 mmHg 78%
    09:00 +14°C° 0 mm 3 mps 764 mmHg 73%
    10:00 +17°C° 0 mm 3 mps 764 mmHg 67%
    11:00 +18°C° 0 mm 3 mps 764 mmHg 62%
    12:00 +19°C° 0 mm 3 mps 764 mmHg 57%
    13:00 +19°C° 0 mm 3 mps 763 mmHg 53%
    14:00 +20°C° 0 mm 3 mps 763 mmHg 48%
    15:00 +20°C° 0 mm 3 mps 763 mmHg 49%
    16:00 +20°C° 0 mm 2 mps 763 mmHg 49%
    17:00 +19°C° 0 mm 2 mps 763 mmHg 50%
    18:00 +19°C° 0 mm 2 mps 763 mmHg 52%
    19:00 +18°C° 0 mm 2 mps 763 mmHg 54%
    20:00 +17°C° 0 mm 3 mps 764 mmHg 57%
    21:00 +17°C° 0 mm 3 mps 764 mmHg 59%
    22:00 +17°C° 0 mm 2 mps 764 mmHg 61%
    23:00 +16°C° 0 mm 2 mps 764 mmHg 63%

    18 Diciembre, Miércoles

    Tiempo Temperatura Precipitaciones Viento Presión Humedad
    00:00 +16°C° 0 mm 2 mps 764 mmHg 64%
    01:00 +16°C° 0 mm 2 mps 764 mmHg 66%
    02:00 +14°C° 0 mm 3 mps 764 mmHg 67%
    03:00 +14°C° 0 mm 3 mps 764 mmHg 70%
    04:00 +14°C° 0 mm 3 mps 764 mmHg 72%
    05:00 +13°C° 0 mm 3 mps 764 mmHg 74%
    06:00 +13°C° 0 mm 3 mps 764 mmHg 76%
    07:00 +13°C° 0 mm 3 mps 764 mmHg 78%
    08:00 +13°C° 0 mm 3 mps 764 mmHg 79%
    09:00 +14°C° 0 mm 3 mps 764 mmHg 74%
    10:00 +17°C° 0 mm 4 mps 764 mmHg 68%
    11:00 +18°C° 0 mm 4 mps 764 mmHg 63%
    12:00 +19°C° 0 mm 4 mps 764 mmHg 58%
    13:00 +20°C° 0 mm 4 mps 763 mmHg 54%
    14:00 +20°C° 0 mm 4 mps 763 mmHg 49%
    15:00 +20°C° 0 mm 3 mps 763 mmHg 50%
    16:00 +20°C° 0 mm 3 mps 763 mmHg 51%
    17:00 +19°C° 0 mm 2 mps 763 mmHg 52%
    18:00 +19°C° 0 mm 3 mps 763 mmHg 54%
    19:00 +18°C° 0 mm 3 mps 763 mmHg 57%
    20:00 +18°C° 0 mm 3 mps 764 mmHg 59%
    21:00 +17°C° 0 mm 3 mps 764 mmHg 60%
    22:00 +17°C° 0 mm 3 mps 764 mmHg 61%
    23:00 +17°C° 0 mm 3 mps 764 mmHg 62%

    19 Diciembre, Jueves

    Tiempo Temperatura Precipitaciones Viento Presión Humedad
    00:00 +16°C° 0 mm 3 mps 764 mmHg 63%
    01:00 +16°C° 0 mm 3 mps 764 mmHg 63%
    02:00 +14°C° 0 mm 3 mps 763 mmHg 64%
    03:00 +14°C° 0 mm 3 mps 763 mmHg 66%
    04:00 +14°C° 0 mm 3 mps 763 mmHg 68%
    05:00 +13°C° 0 mm 3 mps 763 mmHg 69%
    06:00 +13°C° 0 mm 3 mps 763 mmHg 70%
    07:00 +13°C° 0 mm 3 mps 763 mmHg 71%
    08:00 +13°C° 0 mm 3 mps 764 mmHg 73%
    09:00 +14°C° 0 mm 3 mps 764 mmHg 69%
    10:00 +16°C° 0 mm 3 mps 764 mmHg 65%
    11:00 +18°C° 0 mm 4 mps 764 mmHg 61%
    12:00 +19°C° 0 mm 3 mps 763 mmHg 54%
    13:00 +20°C° 0 mm 3 mps 763 mmHg 48%
    14:00 +20°C° 0 mm 2 mps 762 mmHg 42%
    15:00 +20°C° 0 mm 2 mps 762 mmHg 42%
    16:00 +20°C° 0 mm 2 mps 762 mmHg 42%
    17:00 +19°C° 0 mm 2 mps 762 mmHg 42%
    18:00 +18°C° 0 mm 2 mps 762 mmHg 43%
    19:00 +18°C° 0 mm 3 mps 762 mmHg 44%
    20:00 +17°C° 0 mm 3 mps 762 mmHg 45%
    21:00 +17°C° 0 mm 3 mps 762 mmHg 47%
    22:00 +16°C° 0 mm 3 mps 762 mmHg 48%
    23:00 +16°C° 0 mm 3 mps 762 mmHg 49%
    Mostrar más